EW2542 Sandgate AU current weather conditions

sailwx.info

Wind from 006 at 3 knots gusting 10

Air temperature 26.7° C
Dewpoint 24.9° C

Last reported at 2020-Jan-22 14:00 UTC.
Time now 2020-Jan-22 15:12 UTC

Location: S 27°19' E 153°04'.
View on Google Maps.

See reports from other nearby stations

  
Tides and Currents Weather Stations Pressure Air Temp Water Temp Dewpoint Dewpoint Depression Visibility Wind Speed Wind Dir Waves Ship Positions
date/time (UTC)wind fromknots sea level pressurealtimeterstation pressurevisibilityair tempwater tempwave heightnotes
2020-Jan-22 14:00 006 3 gusting 10 26.7
2020-Jan-22 13:53 009 2 gusting 10 26.7
2020-Jan-22 13:46 005 2 gusting 10 26.7
2020-Jan-22 13:39 005 3 gusting 10 26.7
2020-Jan-22 13:32 007 3 gusting 15 26.7
2020-Jan-22 13:25 005 2 gusting 10 26.7
2020-Jan-22 13:18 012 1 gusting 9 26.7
2020-Jan-22 13:11 013 1 gusting 9 26.7
2020-Jan-22 13:04 009 1 gusting 9 26.7
2020-Jan-22 12:57 015 0 gusting 7 26.7
2020-Jan-22 12:50 354 0 gusting 6 26.7
2020-Jan-22 12:43 355 1 gusting 6 26.7
2020-Jan-22 12:36 357 26.7
2020-Jan-22 12:29 342 26.7
2020-Jan-22 12:22 342 26.7
2020-Jan-22 12:15 26.7
2020-Jan-22 12:08 26.7
2020-Jan-22 12:01 002 26.7
2020-Jan-22 11:54 26.7
2020-Jan-22 11:47 26.7
2020-Jan-22 11:40 342 26.7
2020-Jan-22 11:33 348 26.7
2020-Jan-22 11:26 347 0 gusting 6 26.7
2020-Jan-22 11:19 345 3 gusting 9 27.2
2020-Jan-22 11:12 343 4 gusting 10 27.2
2020-Jan-22 11:05 345 1 gusting 6 27.2
2020-Jan-22 10:58 349 3 gusting 10 27.2
2020-Jan-22 10:51 005 2 gusting 11 27.2
2020-Jan-22 10:44 008 1 gusting 11 27.2
2020-Jan-22 10:37 358 1 gusting 6 27.2
2020-Jan-22 10:30 356 1 gusting 10 27.2
2020-Jan-22 10:23 357 2 gusting 10 27.2
2020-Jan-22 10:16 355 4 gusting 12 27.2
2020-Jan-22 10:09 359 4 gusting 12 27.2
2020-Jan-22 10:02 357 4 gusting 11 27.2
2020-Jan-22 09:55 353 2 gusting 10 27.2
2020-Jan-22 09:48 001 2 gusting 9 27.2
2020-Jan-22 09:41 002 1 gusting 8 27.2
2020-Jan-22 09:34 355 1 gusting 10 27.2
2020-Jan-22 09:27 356 3 gusting 10 27.2
2020-Jan-22 09:20 358 5 gusting 12 27.2
2020-Jan-22 09:13 004 4 gusting 12 27.2
2020-Jan-22 09:06 011 2 gusting 11 27.2
2020-Jan-22 08:59 004 2 gusting 11 27.2
2020-Jan-22 08:52 004 2 gusting 13 27.2
2020-Jan-22 08:45 359 2 gusting 12 27.2
2020-Jan-22 08:31 006 2 gusting 12 27.8
2020-Jan-22 08:24 010 2 gusting 10 27.8
2020-Jan-22 08:17 015 2 gusting 13 27.8
2020-Jan-22 08:10 008 3 gusting 13 27.8
2020-Jan-22 08:03 011 2 gusting 10 27.8
2020-Jan-22 07:56 008 3 gusting 12 27.8
2020-Jan-22 07:49 006 3 gusting 13 27.8
2020-Jan-22 07:42 009 3 gusting 13 27.8
2020-Jan-22 07:35 014 2 gusting 13 27.8
2020-Jan-22 07:28 011 3 gusting 11 28.3
2020-Jan-22 07:21 008 4 gusting 13 28.3
2020-Jan-22 07:14 014 4 gusting 13 28.3
2020-Jan-22 07:07 018 2 gusting 13 28.3
2020-Jan-22 07:00 021 1 gusting 10 28.3
2020-Jan-22 06:53 019 2 gusting 12 28.9
2020-Jan-22 06:46 018 2 gusting 13 28.9
2020-Jan-22 06:39 013 1 gusting 11 28.9
2020-Jan-22 06:32 014 1 gusting 12 28.9
2020-Jan-22 06:25 018 1 gusting 10 29.4
2020-Jan-22 06:18 022 1 gusting 10 30.0
2020-Jan-22 06:11 020 2 gusting 13 30.0
2020-Jan-22 06:04 026 2 gusting 13 30.0
2020-Jan-22 05:57 027 2 gusting 11 30.0
2020-Jan-22 05:50 023 2 gusting 10 30.0
2020-Jan-22 05:43 025 2 gusting 12 30.0
2020-Jan-22 05:36 025 1 gusting 13 30.0
2020-Jan-22 05:29 021 4 gusting 14 30.0
2020-Jan-22 05:22 022 3 gusting 13 30.0
2020-Jan-22 05:15 028 2 gusting 11 30.0
2020-Jan-22 05:08 022 2 gusting 11 30.6
2020-Jan-22 05:01 029 2 gusting 9 30.6
2020-Jan-22 04:54 025 2 gusting 8 30.6
2020-Jan-22 04:47 029 2 gusting 7 30.6
2020-Jan-22 04:40 037 1 gusting 7 31.1
2020-Jan-22 04:33 037 1 gusting 7 30.6
2020-Jan-22 04:26 057 0 gusting 5 30.6
2020-Jan-22 04:19 043 0 gusting 6 30.6
2020-Jan-22 04:12 035 1 gusting 8 31.1
2020-Jan-22 04:05 032 1 gusting 5 31.1
2020-Jan-22 03:58 040 1 gusting 6 31.7
2020-Jan-22 03:51 039 0 gusting 4 31.7
2020-Jan-22 03:44 042 1 gusting 4 31.7
2020-Jan-22 03:37 038 0 gusting 6 31.7
2020-Jan-22 03:30 042 0 gusting 4 31.7
2020-Jan-22 03:23 052 0 gusting 8 31.7
2020-Jan-22 03:16 032 1 gusting 7 31.7
2020-Jan-22 03:09 034 1 gusting 7 31.7
2020-Jan-22 03:02 028 0 gusting 9 31.1
2020-Jan-22 02:55 032 1 gusting 9 31.1
2020-Jan-22 02:48 040 0 gusting 5 31.1
2020-Jan-22 02:41 031 0 gusting 6 31.1
2020-Jan-22 02:34 026 0 gusting 7 30.6
2020-Jan-22 02:27 050 0 gusting 7 30.6
2020-Jan-22 02:20 054 0 gusting 7 31.1
2020-Jan-22 02:13 034 0 gusting 7 30.6
2020-Jan-22 02:06 020 0 gusting 6 30.6
2020-Jan-22 01:59 027 0 gusting 5 31.1
2020-Jan-22 01:52 041 0 gusting 5 31.1
2020-Jan-22 01:45 032 0 gusting 5 31.1
2020-Jan-22 01:38 013 31.7
2020-Jan-22 01:31 023 0 gusting 5 31.7
2020-Jan-22 01:24 056 31.7
2020-Jan-22 01:17 029 0 gusting 4 32.2
2020-Jan-22 01:10 049 0 gusting 4 32.2
2020-Jan-22 01:03 049 0 gusting 6 32.2
2020-Jan-22 00:56 011 0 gusting 6 31.7
2020-Jan-22 00:49 015 0 gusting 5 31.1
2020-Jan-22 00:42 014 0 gusting 8 31.1
2020-Jan-22 00:35 016 1 gusting 8 31.1
2020-Jan-22 00:28 016 1 gusting 6 31.1
2020-Jan-22 00:21 006 1 gusting 6 30.6
2020-Jan-22 00:14 014 0 gusting 4 30.6
2020-Jan-22 00:07 010 0 gusting 4 30.6
2020-Jan-22 00:00 013 1 gusting 5 30.6
2020-Jan-21 23:53 004 2 gusting 5 30.0
2020-Jan-21 23:46 002 1 gusting 4 30.0
2020-Jan-21 23:39 348 1 gusting 6 29.4
2020-Jan-21 23:32 350 1 gusting 5 29.4
2020-Jan-21 23:25 346 2 gusting 7 29.4
2020-Jan-21 23:18 355 2 gusting 7 28.9
2020-Jan-21 23:11 352 2 gusting 6 28.9
2020-Jan-21 23:04 351 2 gusting 6 28.9
2020-Jan-21 22:59 347 2 gusting 6 28.9
2020-Jan-21 22:50 355 3 gusting 6 28.9
2020-Jan-21 22:43 347 2 gusting 6 28.3
2020-Jan-21 22:36 003 2 gusting 6 28.3
2020-Jan-21 22:29 009 2 gusting 6 27.8
2020-Jan-21 22:22 002 2 gusting 5 27.8
2020-Jan-21 22:15 005 2 gusting 6 27.2
2020-Jan-21 22:08 354 2 gusting 6 27.2
2020-Jan-21 22:01 347 1 gusting 6 27.2
2020-Jan-21 21:54 350 1 gusting 6 26.7
2020-Jan-21 21:47 336 2 gusting 6 26.7
2020-Jan-21 21:40 349 0 gusting 5 26.1
2020-Jan-21 21:33 355 0 gusting 4 25.6
2020-Jan-21 21:26 346 0 gusting 4 25.6
2020-Jan-21 21:19 351 25.0
2020-Jan-21 21:12 351 0 gusting 5 25.0
2020-Jan-21 21:05 354 1 gusting 5 25.0
2020-Jan-21 20:58 359 0 gusting 3 25.0
2020-Jan-21 20:51 322 0 gusting 3 25.0
2020-Jan-21 20:44 314 0 gusting 2 24.4
2020-Jan-21 20:37 336 24.4
2020-Jan-21 20:30 331 0 gusting 3 23.9
2020-Jan-21 20:23 327 0 gusting 3 23.3
2020-Jan-21 20:16 329 23.3
2020-Jan-21 20:09 22.8
2020-Jan-21 20:02 22.8
2020-Jan-21 19:55 22.2
2020-Jan-21 19:48 22.2
2020-Jan-21 19:41 22.2
2020-Jan-21 19:34 22.2
2020-Jan-21 19:27 22.2
2020-Jan-21 19:20 22.2
2020-Jan-21 19:13 22.2
2020-Jan-21 19:06 22.2
2020-Jan-21 18:59 22.2
2020-Jan-21 18:52 22.2
2020-Jan-21 18:45 22.2
2020-Jan-21 18:38 22.2
2020-Jan-21 18:31 22.2
2020-Jan-21 18:24 22.2
2020-Jan-21 18:17 22.2
2020-Jan-21 18:10 22.8
2020-Jan-21 18:03 22.8
2020-Jan-21 17:56 22.8
2020-Jan-21 17:49 22.8
2020-Jan-21 17:42 22.8
2020-Jan-21 17:35 329 22.8
2020-Jan-21 17:28 329 22.8
2020-Jan-21 17:21 329 22.8
2020-Jan-21 17:14 329 22.8
2020-Jan-21 17:07 328 22.8
2020-Jan-21 17:00 328 22.8
2020-Jan-21 16:53 22.8
2020-Jan-21 16:46 22.8
2020-Jan-21 16:39 23.3
2020-Jan-21 16:32 23.3
2020-Jan-21 16:25 23.3
2020-Jan-21 16:18 23.3
2020-Jan-21 16:11 23.3
2020-Jan-21 16:04 23.3
2020-Jan-21 15:57 328 23.3
2020-Jan-21 15:50 328 23.3
2020-Jan-21 15:43 328 23.3
2020-Jan-21 15:36 23.3
2020-Jan-21 15:29 23.3
2020-Jan-21 15:22 23.3
2020-Jan-21 15:15 23.3
2020-Jan-21 15:08 23.3
2020-Jan-21 15:01 23.3
2020-Jan-21 14:54 23.3
2020-Jan-21 14:47 23.3
2020-Jan-21 14:40 23.9
2020-Jan-21 14:33 23.9
2020-Jan-21 14:26 23.9
2020-Jan-21 14:19 23.9
2020-Jan-21 14:12 23.9
2020-Jan-21 14:05 23.9
2020-Jan-21 13:58 23.9
2020-Jan-21 13:51 23.9
2020-Jan-21 13:44 23.9
2020-Jan-21 13:37 23.9
2020-Jan-21 13:30 24.4
2020-Jan-21 13:23 24.4
2020-Jan-21 13:16 24.4
2020-Jan-21 13:09 24.4
2020-Jan-21 13:02 25.0
2020-Jan-21 12:55 25.0
2020-Jan-21 12:48 25.6
2020-Jan-21 12:41 25.6
2020-Jan-21 12:34 002 25.6
2020-Jan-21 12:27 353 26.1
2020-Jan-21 12:20 016 26.7
2020-Jan-21 12:13 008 26.7
2020-Jan-21 12:06 013 26.7
2020-Jan-21 11:59 013 26.7
2020-Jan-21 11:52 012 26.1
2020-Jan-21 11:45 26.1
2020-Jan-21 11:38 018 26.1
2020-Jan-21 11:31 26.1
2020-Jan-21 11:24 26.1
2020-Jan-21 11:17 26.1
2020-Jan-21 11:10 129 26.1
2020-Jan-21 11:03 129 25.6
2020-Jan-21 10:56 25.6
2020-Jan-21 10:49 25.6
2020-Jan-21 10:42 25.0
2020-Jan-21 10:35 25.0
2020-Jan-21 10:28 25.0
2020-Jan-21 10:21 25.6
2020-Jan-21 10:14 25.6
2020-Jan-21 10:07 25.6
2020-Jan-21 10:00 25.6
2020-Jan-21 09:53 25.6
2020-Jan-21 09:46 25.6
2020-Jan-21 09:39 25.6
2020-Jan-21 09:32 25.6
2020-Jan-21 09:25 25.6
2020-Jan-21 09:18 25.6
2020-Jan-21 09:11 26.1
2020-Jan-21 09:04 26.1
2020-Jan-21 08:57 010 26.1
2020-Jan-21 08:50 006 26.1
2020-Jan-21 08:43 357 26.7
2020-Jan-21 08:36 345 26.7
2020-Jan-21 08:29 355 0 gusting 6 27.2
2020-Jan-21 08:22 356 1 gusting 7 27.2
2020-Jan-21 08:15 359 0 gusting 6 27.2
2020-Jan-21 08:08 358 27.8
2020-Jan-21 08:01 015 27.8
2020-Jan-21 07:54 360 1 gusting 4 27.8
2020-Jan-21 07:47 002 0 gusting 4 27.8
2020-Jan-21 07:40 003 0 gusting 5 27.8
2020-Jan-21 07:33 360 1 gusting 5 27.8
2020-Jan-21 07:26 010 0 gusting 4 27.2
2020-Jan-21 07:19 014 0 gusting 3 26.7
2020-Jan-21 07:12 345 0 gusting 4 26.1
2020-Jan-21 07:05 348 1 gusting 6 25.6
2020-Jan-21 06:58 003 1 gusting 7 25.6
2020-Jan-21 06:51 122 25.0
2020-Jan-21 06:44 002 0 gusting 6 24.4
2020-Jan-21 06:37 353 4 gusting 17 24.4
2020-Jan-21 06:30 319 2 gusting 8 24.4
2020-Jan-21 06:23 313 3 gusting 13 25.6
2020-Jan-21 06:16 337 4 gusting 16 27.2
2020-Jan-21 06:09 358 4 gusting 11 28.3
2020-Jan-21 06:02 359 4 gusting 12 28.9
2020-Jan-21 05:55 004 3 gusting 13 28.9
2020-Jan-21 05:48 012 1 gusting 10 28.9
2020-Jan-21 05:41 014 1 gusting 10 28.9
2020-Jan-21 05:34 010 2 gusting 10 28.9
2020-Jan-21 05:27 002 2 gusting 10 29.4
2020-Jan-21 05:20 356 2 gusting 9 29.4
2020-Jan-21 05:13 020 0 gusting 6 29.4
2020-Jan-21 05:06 017 0 gusting 6 30.0
2020-Jan-21 04:59 029 0 gusting 8 30.6
2020-Jan-21 04:52 024 2 gusting 11 31.1
2020-Jan-21 04:45 036 1 gusting 8 31.1
2020-Jan-21 04:38 033 1 gusting 6 31.1
2020-Jan-21 04:31 032 1 gusting 6 31.7
2020-Jan-21 04:24 039 1 gusting 6 31.1
2020-Jan-21 04:17 033 1 gusting 6 31.1
2020-Jan-21 04:10 043 0 gusting 6 31.7
2020-Jan-21 04:03 033 1 gusting 8 31.7
2020-Jan-21 03:56 026 1 gusting 7 31.7
2020-Jan-21 03:49 039 1 gusting 9 31.1
2020-Jan-21 03:42 038 0 gusting 6 31.1
2020-Jan-21 03:35 024 2 gusting 7 31.1
2020-Jan-21 03:28 027 2 gusting 7 31.1
2020-Jan-21 03:21 040 0 gusting 6 31.7
2020-Jan-21 03:14 039 1 gusting 6 31.7
2020-Jan-21 03:07 039 1 gusting 9 31.7
2020-Jan-21 03:00 044 0 gusting 4 32.2
2020-Jan-21 02:53 036 0 gusting 5 32.2
2020-Jan-21 02:46 032 0 gusting 6 32.2
2020-Jan-21 02:39 033 1 gusting 5 32.2
2020-Jan-21 02:32 032 1 gusting 6 32.2
2020-Jan-21 02:25 027 1 gusting 5 32.2
2020-Jan-21 02:18 034 1 gusting 6 31.7
2020-Jan-21 02:11 041 0 gusting 6 31.7
2020-Jan-21 02:04 046 1 gusting 6 31.7
2020-Jan-21 01:57 050 0 gusting 5 31.7
2020-Jan-21 01:50 052 0 gusting 5 31.7
2020-Jan-21 01:43 035 1 gusting 6 31.7
2020-Jan-21 01:36 061 0 gusting 4 31.7
2020-Jan-21 01:29 054 0 gusting 4 31.7
2020-Jan-21 01:22 040 1 gusting 5 31.7
2020-Jan-21 01:15 066 1 gusting 5 31.7
2020-Jan-21 01:08 070 0 gusting 6 31.7
2020-Jan-21 01:01 052 0 gusting 4 31.7
2020-Jan-21 00:54 052 0 gusting 3 31.7
2020-Jan-21 00:47 072 0 gusting 6 31.7
2020-Jan-21 00:40 062 0 gusting 4 32.2
2020-Jan-21 00:33 091 0 gusting 5 31.7
2020-Jan-21 00:26 101 1 gusting 5 31.7
2020-Jan-21 00:19 095 0 gusting 6 31.7
2020-Jan-21 00:12 108 0 gusting 4 31.7
2020-Jan-21 00:05 101 0 gusting 3 31.7
2020-Jan-20 23:58 103 0 gusting 4 31.7
2020-Jan-20 23:51 090 0 gusting 3 31.1
2020-Jan-20 23:44 100 0 gusting 3 31.1
2020-Jan-20 23:37 103 0 gusting 3 31.1
2020-Jan-20 23:30 097 0 gusting 4 31.1
2020-Jan-20 23:23 087 31.1
2020-Jan-20 23:16 094 0 gusting 2 30.6
2020-Jan-20 23:09 109 0 gusting 3 30.0
2020-Jan-20 23:02 113 1 gusting 4 29.4
2020-Jan-20 22:55 134 0 gusting 5 29.4
2020-Jan-20 22:48 147 1 gusting 4 28.9
2020-Jan-20 22:41 112 2 gusting 6 28.9
2020-Jan-20 22:34 126 0 gusting 6 28.9
2020-Jan-20 22:27 146 1 gusting 6 28.3
2020-Jan-20 22:20 126 2 gusting 6 27.8
2020-Jan-20 22:13 126 0 gusting 5 27.8
2020-Jan-20 22:06 27.2
2020-Jan-20 21:59 197 27.2
2020-Jan-20 21:52 315 27.2
2020-Jan-20 21:45 348 2 gusting 6 27.2
2020-Jan-20 21:38 347 4 gusting 8 27.2
2020-Jan-20 21:31 348 2 gusting 8 27.2
2020-Jan-20 21:24 349 1 gusting 6 26.7
2020-Jan-20 21:17 353 2 gusting 6 26.7
2020-Jan-20 21:10 352 2 gusting 6 26.7
2020-Jan-20 21:03 351 3 gusting 6 26.7
2020-Jan-20 20:56 347 3 gusting 6 26.7
2020-Jan-20 20:49 347 1 gusting 5 26.1
2020-Jan-20 20:42 349 2 gusting 6 26.1
2020-Jan-20 20:35 349 1 gusting 6 25.6
2020-Jan-20 20:28 354 1 gusting 5 25.0
2020-Jan-20 20:21 357 0 gusting 5 25.0
2020-Jan-20 20:14 25.0
2020-Jan-20 20:07 356 24.4
2020-Jan-20 20:00 008 0 gusting 3 24.4
2020-Jan-20 19:53 360 0 gusting 3 24.4
2020-Jan-20 19:46 343 24.4
2020-Jan-20 19:39 244 0 gusting 3 24.4
2020-Jan-20 19:32 211 24.4
2020-Jan-20 19:25 24.4
2020-Jan-20 19:18 24.4
2020-Jan-20 19:11 24.4
2020-Jan-20 19:04 24.4
2020-Jan-20 18:57 329 24.4
2020-Jan-20 18:50 24.4
2020-Jan-20 18:43 329 24.4
2020-Jan-20 18:36 24.4
2020-Jan-20 18:29 293 24.4
2020-Jan-20 18:22 263 24.4
2020-Jan-20 18:15 269 25.0
2020-Jan-20 18:08 269 25.0
2020-Jan-20 18:01 247 25.0
2020-Jan-20 17:54 25.0
2020-Jan-20 17:47 25.0
2020-Jan-20 17:40 25.0
2020-Jan-20 17:33 346 25.0
2020-Jan-20 17:26 343 25.0
2020-Jan-20 17:19 347 25.0
2020-Jan-20 17:12 340 25.0
2020-Jan-20 17:05 355 25.0
2020-Jan-20 16:58 360 25.6
2020-Jan-20 16:51 350 0 gusting 4 25.6
2020-Jan-20 16:44 357 0 gusting 4 25.6
2020-Jan-20 16:37 347 0 gusting 4 25.6
2020-Jan-20 16:30 347 1 gusting 6 25.6
2020-Jan-20 16:23 350 1 gusting 6 25.6
2020-Jan-20 16:16 354 0 gusting 6 25.6
2020-Jan-20 16:09 007 0 gusting 6 25.6
2020-Jan-20 16:02 356 1 gusting 6 25.6
2020-Jan-20 15:55 350 2 gusting 6 25.6
2020-Jan-20 15:48 344 1 gusting 6 25.6
2020-Jan-20 15:41 351 1 gusting 5 25.6
2020-Jan-20 15:34 349 0 gusting 5 25.6
2020-Jan-20 15:27 355 26.1
2020-Jan-20 15:20 356 0 gusting 6 26.1
2020-Jan-20 15:13 347 1 gusting 7 26.1
2020-Jan-20 15:06 342 1 gusting 7 26.1